Location: Three Oaks Observatory
(31.1535°N, 83.5955°W)
Time: 09:45:26
(UTC-04:00)

ISS - Visible Passes

Search period start: 21 July 2018 00:00
Search period end: 31 July 2018 00:00
Orbit: 402 x 408 km, 51.6° (Epoch: 21 July)

Date Brightness Start Highest point End Pass type
(mag) Time Alt. Az. Time Alt. Az. Time Alt. Az.
21 Jul -1.5 04:50:10 10° NNW 04:53:01 27° NE 04:55:52 10° E visible
21 Jul -2.8 21:25:57 10° WSW 21:29:07 49° NW 21:32:18 10° NNE visible
22 Jul -0.6 03:58:43 10° N 04:00:43 15° NE 04:02:43 10° ENE visible
22 Jul -3.5 05:34:13 10° WNW 05:37:20 42° SW 05:40:28 10° SSE visible
22 Jul -0.3 22:12:45 10° NW 22:13:46 11° NNW 22:14:48 10° NNW visible
23 Jul -0.8 21:18:58 10° W 21:21:24 19° NW 21:23:50 10° NNE visible
